Weather in Cajamarca

Peru     7°09′27″S   78°30′58″W
temp.,
°C
wind,
m/s
gust,
m/s
humid.,
%
clouds,
%
prec.,
mm/h
press.,
hPa
HPBL,
m
9 march, tue
tue901:00+10w2297100 4.2 1016188
04:00+9s1197100 3.1 1015149
07:00+9ese0196100 8.3 1016107
10:00+11se0190100 1.8 1018224
13:00+13se2279100 2.5 1015542
16:00+12wsw2294100 3.0 1012250
19:00+10w3498100 11.1 1015255
22:00+9w1194100 4.3 1017117
10 march, wed
wed1001:00+9sw1197100 5.1 101695
04:00+9sw1298100 2.8 1015135
07:00+9sw2298100 7.5 1017143
10:00+10wsw1195100 1.6 1018193
13:00+13sw2285100 3.4 1015469
16:00+10wsw2297100 2.5 1013200
19:00+10sw1299100 3.8 1014101
22:00+10wsw1198100 1.1 101694
11 march, thu
thu1101:00+9sw1199100 1.3 1016122
04:00+8wsw0197100 0.1 101486
07:00+9ene119398 0.1 101684
10:00+15ssw116751 0.1 1016876
13:00+15wsw337359 1.9 1013799
16:00+13wsw348596 3.0 1010551
19:00+10wsw229698 8.0 1013197
22:00+10wnw1195100 7.0 1016142
12 march, fri
fri1201:00+9sw1195100 7.1 1015127
04:00+9n0094100 0.2 101472
07:00+9ene119281 0.3 101639
10:00+16ese226410 0.0 10161039
13:00+17sw226833 2.7 1013943
16:00+13wsw339095 5.3 1011389
19:00+11wsw229797 6.8 1013168
22:00+10w1297100 0.6 1016156
13 march, sat
sat1301:00+10w1196100 0.8 1016135
04:00+9s0195100 0.1 101586
07:00+9ne1192100 0.2 101679
10:00+16s126553 0.0 1016997
13:00+15wsw337561 2.1 1013718
16:00+13wsw339092 2.5 1011426
19:00+11wsw229796 3.0 1013204
22:00+10w1297100 0.3 101699